Weather History for Nantucket, MA

Change the Weather History Date:

Sunday, February 3, 2013

  Actual Average Record
Temperature  
Mean Temperature 29 °F -  
Max Temperature 32 °F 38 °F 54 °F (1968)
Min Temperature 26 °F 23 °F 5 °F (1971)
Degree Days  
Heating Degree Days 36    
Moisture  
Dew Point 25 °F    
Average Humidity 85    
Maximum Humidity 93    
Minimum Humidity 73    
Precipitation  
Precipitation 0.01 in - - ()
Sea Level Pressure  
Sea Level Pressure 29.86 in    
Wind  
Wind Speed 12 mph (NNW)    
Max Wind Speed 23 mph    
Max Gust Speed 32 mph    
Visibility 6 miles    
Events Snow    
Averages and records for this station are not official NWS values.
T = Trace of Precipitation, MM = Missing Value Source: NWS Daily Summary

Daily Weather History Graph

Daily Weather History Graph

Search for Another Location

Airport:

Trip Planner

Search our weather history database for the weather conditions in past years. The results will help you decide how hot, cold, wet, or windy it might be!

Date:

Astronomy

Feb. 03, 2013 Rise Set
Actual Time 6:49 AM EST 4:59 PM EST
Civil Twilight 6:20 AM EST 5:28 PM EST
Nautical Twilight 5:47 AM EST 6:01 PM EST
Astronomical Twilight 5:14 AM EST 6:33 PM EST
Moon 12:13 AM EST (2/3) 10:34 AM EST (2/3)
Length of Visible Light 11h 08m
Length of Day
10h 10m
Waning Gibbous, 49% of the Moon is Illuminated
Feb 3
Waning Gibbous
Feb 10
New
Feb 17
First Quarter
Feb 25
Full
Mar 4
Last Quarter

Hourly Weather History & Observations

Time (EST) Temp. Windchill Dew Point Humidity Pressure Visibility Wind Dir Wind Speed Gust Speed Precip Events Conditions
12:53 AM 32.0 °F 24.2 °F 30.0 °F 92% 30.02 in 1.0 mi WNW 9.2 mph - 0.01 in Snow Light Snow
1:07 AM 30.2 °F 21.3 °F 28.4 °F 93% 30.02 in 0.8 mi NW 10.4 mph - 0.00 in Snow Light Snow
1:15 AM 30.2 °F 20.8 °F 28.4 °F 93% 30.02 in 1.0 mi WNW 11.5 mph - 0.00 in Snow Light Snow
1:25 AM 30.2 °F 20.2 °F 28.4 °F 93% 30.02 in 1.0 mi NW 12.7 mph - 0.00 in Snow Light Snow
1:51 AM 28.4 °F 17.0 °F 26.6 °F 93% 30.02 in 1.5 mi NW 15.0 mph - 0.00 in Snow Light Snow
1:53 AM 28.9 °F 17.3 °F 27.0 °F 92% 30.02 in 1.8 mi NNW 16.1 mph - 0.00 in Snow Light Snow
1:55 AM 28.4 °F 17.0 °F 26.6 °F 93% 30.02 in 2.0 mi NNW 15.0 mph - 0.00 in Snow Light Snow
2:23 AM 28.4 °F 18.5 °F 26.6 °F 93% 30.01 in 1.0 mi NNW 11.5 mph - 0.00 in Snow Light Snow
2:33 AM 28.4 °F 17.5 °F 24.8 °F 86% 30.01 in 0.8 mi NNW 13.8 mph - 0.00 in Snow Light Snow
2:53 AM 28.0 °F 18.6 °F 25.0 °F 88% 30.01 in 1.0 mi NNW 10.4 mph - 0.00 in Snow Light Snow
3:53 AM 27.0 °F 17.3 °F 24.1 °F 89% 29.99 in 1.5 mi North 10.4 mph - 0.00 in Snow Light Snow
4:01 AM 26.6 °F 16.8 °F 24.8 °F 93% 29.99 in 2.5 mi North 10.4 mph - 0.00 in Snow Light Snow
4:10 AM 26.6 °F 15.7 °F 24.8 °F 93% 29.98 in 4.0 mi North 12.7 mph - 0.00 in Snow Light Snow
4:28 AM 26.6 °F 16.2 °F 23.0 °F 86% 29.98 in 5.0 mi North 11.5 mph - 0.00 in Snow Light Snow
4:53 AM 27.0 °F 18.0 °F 21.9 °F 81% 29.97 in 10.0 mi North 9.2 mph - 0.00 in   Overcast
5:53 AM 26.1 °F 19.4 °F 21.0 °F 81% 29.95 in 10.0 mi North 5.8 mph - N/A   Scattered Clouds
7:53 AM 28.0 °F 22.8 °F 23.0 °F 81% 29.95 in 10.0 mi NNW 4.6 mph - N/A   Overcast
8:53 AM 28.0 °F 20.0 °F 23.0 °F 81% 29.93 in 10.0 mi NNW 8.1 mph - N/A   Overcast
9:53 AM 28.9 °F 22.8 °F 24.1 °F 82% 29.91 in 10.0 mi NNW 5.8 mph - N/A   Overcast
10:53 AM 30.9 °F 24.3 °F 25.0 °F 79% 29.86 in 10.0 mi NNW 6.9 mph - N/A   Partly Cloudy
11:53 AM 30.9 °F 26.2 °F 25.0 °F 79% 29.83 in 10.0 mi North 4.6 mph - N/A   Clear
12:53 PM 32.0 °F 24.8 °F 25.0 °F 75% 29.79 in 10.0 mi NNW 8.1 mph - N/A   Clear
1:53 PM 32.0 °F 24.2 °F 24.1 °F 73% 29.76 in 10.0 mi NNW 9.2 mph - N/A   Clear
2:53 PM 32.0 °F 22.5 °F 24.1 °F 73% 29.75 in 10.0 mi North 12.7 mph - N/A   Partly Cloudy
3:53 PM 30.9 °F 20.2 °F 25.0 °F 79% 29.71 in 10.0 mi North 15.0 mph - N/A   Clear
4:53 PM 30.0 °F 18.7 °F 24.1 °F 79% 29.70 in 10.0 mi NNW 16.1 mph - N/A   Scattered Clouds
5:22 PM 30.2 °F 20.2 °F 24.8 °F 80% 29.70 in 10.0 mi NNW 12.7 mph - N/A   Overcast
5:53 PM 30.9 °F 19.8 °F 26.1 °F 82% 29.70 in 10.0 mi NNW 16.1 mph 23.0 mph N/A   Overcast
6:01 PM 30.2 °F 18.1 °F 26.6 °F 86% 29.70 in 10.0 mi NNW 18.4 mph 24.2 mph N/A   Overcast
6:53 PM 30.9 °F 22.2 °F 26.1 °F 82% 29.70 in 10.0 mi NW 10.4 mph - N/A   Overcast
7:53 PM 30.9 °F 20.2 °F 27.0 °F 85% 29.68 in 9.0 mi NW 15.0 mph 24.2 mph N/A   Overcast
8:53 PM 30.0 °F 17.2 °F 26.1 °F 85% 29.65 in 7.0 mi NW 20.7 mph 27.6 mph N/A   Overcast
9:53 PM 30.0 °F 17.2 °F 26.1 °F 85% 29.65 in 5.0 mi NW 20.7 mph 31.1 mph 0.00 in Snow Light Snow
10:43 PM 28.4 °F 14.7 °F 24.8 °F 86% 29.66 in 10.0 mi NW 21.9 mph 27.6 mph 0.00 in   Overcast
10:53 PM 28.9 °F 15.4 °F 24.1 °F 82% 29.67 in 10.0 mi NW 21.9 mph 27.6 mph 0.00 in   Overcast
11:49 PM 28.4 °F 15.1 °F 23.0 °F 80% 29.67 in 5.0 mi NW 20.7 mph 32.2 mph 0.00 in Snow Light Snow
11:53 PM 28.0 °F 13.9 °F 23.0 °F 81% 29.68 in 4.0 mi NW 23.0 mph 31.1 mph 0.00 in Snow Light Snow